FW1404 Weather Reports


Display with metric or nautical units.
time (UTC)temp
F
wind
direction
speed
MPH
gust
MPH
rain 1hr
in
rain 24hr
in
rain mn
in
humidity
%
barometer
mb
20260904181634 66 289 6.0 15.0 0.00 0.01 0.01 77 1008.3
20260904181149 66 270 6.0 12.0 0.00 0.01 0.01 77 1008.3
20260904180634 66 270 7.0 18.0 0.00 0.01 0.01 78 1008.2
20260904180131 66 277 12.0 18.0 0.00 0.01 0.01 78 1008.1
20260904175932 66 275 6.0 11.0 0.00 0.01 0.01 78 1008.0
20260904175131 66 270 7.0 15.0 0.00 0.01 0.01 78 1007.9
20260904174635 66 265 7.0 15.0 0.01 0.01 0.01 78 1007.7
20260904174416 66 284 7.0 22.0 0.01 0.01 0.01 78 1007.6
20260904173636 66 327 11.0 22.0 0.01 0.01 0.01 78 1007.5
20260904173133 67 255 8.0 17.0 0.01 0.01 0.01 78 1007.3
20260904172653 67 279 10.0 17.0 0.01 0.01 0.01 78 1007.3
20260904172133 67 269 10.0 15.0 0.01 0.01 0.01 79 1007.2
20260904171637 68 277 8.0 17.0 0.01 0.01 0.01 80 1007.2
20260904171136 68 228 8.0 17.0 0.01 0.01 0.01 80 1007.1
20260904170635 69 270 7.0 16.0 0.01 0.01 0.01 80 1007.0
20260904170133 71 311 9.0 19.0 0.01 0.01 0.01 79 1006.9
20260904165640 72 294 10.0 23.0 0.01 0.00 0.01 79 1006.5
20260904165131 74 315 12.0 37.0 0.01 0.00 0.01 77 1006.6
20260904164634 77 325 28.0 37.0 0.00 0.00 0.00 71 1006.6
20260904164135 78 234 10.0 20.0 0.00 0.00 0.00 70 1005.1
20260904163636 78 228 10.0 21.0 0.00 0.00 0.00 68 1004.7
20260904163145 78 218 11.0 21.0 0.00 0.00 0.00 68 1004.7
20260904162640 78 211 11.0 16.0 0.00 0.00 0.00 68 1004.9
20260904162132 78 255 10.0 17.0 0.00 0.00 0.00 68 1005.1
20260904161632 78 228 11.0 19.0 0.00 0.00 0.00 68 1005.2
20260904161130 78 234 13.0 19.0 0.00 0.00 0.00 68 1005.1
20260904160924 78 265 10.0 20.0 0.00 0.00 0.00 68 1005.2
20260904160130 78 213 11.0 20.0 0.00 0.00 0.00 68 1005.0
20260904155923 78 246 10.0 20.0 0.00 0.00 0.00 68 1005.2
20260904155128 78 217 15.0 20.0 0.00 0.00 0.00 68 1005.3
20260904154928 78 218 10.0 18.0 0.00 0.00 0.00 68 1005.3
20260904154131 78 221 8.0 22.0 0.00 0.00 0.00 68 1005.4
20260904153717 78 229 11.0 22.0 0.00 0.00 0.00 68 1005.4
20260904153659 78 228 13.0 22.0 0.00 0.00 0.00 68 1005.4
20260904152646 78 280 7.0 26.0 0.00 0.00 0.00 68 1005.5
20260904152127 78 235 15.0 26.0 0.00 0.00 0.00 68 1005.4
20260904151642 78 238 11.0 27.0 0.00 0.00 0.00 68 1005.5
20260904151127 78 228 14.0 29.0 0.00 0.00 0.00 68 1005.5
20260904150629 78 268 18.0 29.0 0.00 0.00 0.00 68 1005.5
20260904150138 77 244 15.0 22.0 0.00 0.00 0.00 68 1005.7
20260904145626 77 228 13.0 21.0 0.00 0.00 0.00 68 1005.7
20260904145404 0 0.0 0.0 0.00 0.00 0.00
20260904144909 77 248 14.0 27.0 0.00 0.00 0.00 69 1005.9
20260904144348 77 248 14.0 27.0 0.00 0.00 0.00 69 1005.9
20260904143850 77 235 10.0 18.0 0.00 0.00 0.00 69 1006.0
20260904143347 77 227 12.0 23.0 0.00 0.00 0.00 68 1006.0
20260904143130 77 211 14.0 23.0 0.00 0.00 0.00 68 1006.1
20260904142344 78 248 17.0 21.0 0.00 0.00 0.00 68 1006.1
20260904141848 78 234 12.0 23.0 0.00 0.00 0.00 68 1006.3
20260904141347 78 228 11.0 26.0 0.00 0.00 0.00 68 1006.4
20260904140903 78 229 15.0 26.0 0.00 0.00 0.00 68 1006.4
20260904140629 78 211 9.0 23.0 0.00 0.00 0.00 68 1006.4
20260904135851 78 234 14.0 24.0 0.00 0.00 0.00 69 1006.5
20260904135347 78 222 8.0 24.0 0.00 0.00 0.00 68 1006.3
20260904134848 78 204 10.0 21.0 0.00 0.00 0.00 69 1006.5
20260904134347 77 210 9.0 18.0 0.00 0.00 0.00 69 1006.6
20260904134153 77 231 11.0 19.0 0.00 0.00 0.00 69 1006.8
20260904133345 77 235 8.0 32.0 0.00 0.00 0.00 70 1006.9
20260904132849 77 237 19.0 32.0 0.00 0.00 0.00 70 1006.7
20260904132345 76 237 12.0 21.0 0.00 0.00 0.00 70 1007.0
20260904131847 76 222 13.0 19.0 0.00 0.00 0.00 70 1007.0
20260904131346 76 239 7.0 26.0 0.00 0.00 0.00 70 1007.2
20260904130847 76 225 14.0 26.0 0.00 0.00 0.00 70 1007.3
20260904130344 76 244 17.0 24.0 0.00 0.00 0.00 69 1007.3
20260904125849 77 224 10.0 21.0 0.00 0.00 0.00 69 1007.4
20260904125344 77 255 11.0 21.0 0.00 0.00 0.00 69 1007.6
20260904124847 77 255 9.0 26.0 0.00 0.00 0.00 68 1007.6
20260904124347 77 269 13.0 26.0 0.00 0.00 0.00 69 1007.8
20260904123847 77 234 15.0 23.0 0.00 0.00 0.00 69 1007.8
20260904123344 77 229 15.0 22.0 0.00 0.00 0.00 68 1007.8
20260904122848 77 275 11.0 19.0 0.00 0.00 0.00 69 1007.8
20260904122344 77 277 11.0 26.0 0.00 0.00 0.00 69 1008.0
20260904121846 77 258 15.0 26.0 0.00 0.00 0.00 68 1008.1
20260904121345 77 256 17.0 32.0 0.00 0.00 0.00 68 1008.4
20260904120846 77 221 22.0 32.0 0.00 0.00 0.00 62 1008.3
20260904120632 77 242 8.0 17.0 0.00 0.00 0.00 64 1008.4
20260904115848 77 245 12.0 23.0 0.00 0.00 0.00 64 1008.5
20260904115343 77 249 13.0 23.0 0.00 0.00 0.00 63 1008.5
20260904114846 76 246 12.0 28.0 0.00 0.00 0.00 64 1008.5
20260904114626 76 242 17.0 28.0 0.00 0.00 0.00 64 1008.5
20260904113846 76 244 8.0 18.0 0.00 0.00 0.00 67 1008.7
20260904113342 75 260 12.0 18.0 0.00 0.00 0.00 66 1008.8
20260904112848 75 237 12.0 18.0 0.00 0.00 0.00 67 1008.9
20260904112622 75 234 10.0 22.0 0.00 0.00 0.00 67 1009.1
20260904111844 75 208 17.0 22.0 0.00 0.00 0.00 67 1009.1
20260904111425 74 207 14.0 21.0 0.00 0.00 0.00 69 1009.3
20260904111409 75 249 11.0 21.0 0.00 0.00 0.00 68 1009.2
20260904110342 74 222 11.0 18.0 0.00 0.00 0.00 69 1009.3
20260904105847 74 242 10.0 18.0 0.00 0.00 0.00 70 1009.4
20260904105341 73 200 12.0 16.0 0.00 0.00 0.00 71 1009.3
20260904104845 73 210 10.0 16.0 0.00 0.00 0.00 72 1009.4
20260904104343 72 221 10.0 24.0 0.00 0.00 0.00 72 1009.6
20260904103843 72 256 11.0 24.0 0.00 0.00 0.00 72 1009.7
20260904103342 72 245 11.0 16.0 0.00 0.00 0.00 72 1009.9
20260904102846 72 229 12.0 20.0 0.00 0.00 0.00 73 1009.7
20260904102341 72 231 11.0 20.0 0.00 0.00 0.00 73 1009.8
20260904101843 72 225 9.0 18.0 0.00 0.00 0.00 73 1009.8
20260904101343 72 248 9.0 14.0 0.00 0.00 0.00 74 1009.9
20260904100844 71 229 8.0 14.0 0.00 0.00 0.00 74 1010.1
20260904100340 71 238 10.0 17.0 0.00 0.00 0.00 74 1010.1
20260904095845 72 224 12.0 19.0 0.00 0.00 0.00 72 1010.2
20260904095341 73 221 10.0 19.0 0.00 0.00 0.00 72 1010.3
20260904094843 73 258 11.0 19.0 0.00 0.00 0.00 72 1010.1
20260904094341 73 260 11.0 20.0 0.00 0.00 0.00 72 1010.4
20260904093843 73 238 14.0 20.0 0.00 0.00 0.00 72 1010.5
20260904093340 73 229 10.0 19.0 0.00 0.00 0.00 74 1010.7
20260904092844 72 225 15.0 20.0 0.00 0.00 0.00 74 1010.9
20260904092340 72 217 15.0 20.0 0.00 0.00 0.00 74 1011.0
20260904091845 71 218 13.0 18.0 0.00 0.00 0.00 76 1011.0
20260904091342 71 231 9.0 18.0 0.00 0.00 0.00 77 1011.1
20260904090842 70 201 11.0 16.0 0.00 0.00 0.00 76 1011.1
20260904090344 70 203 12.0 16.0 0.00 0.00 0.00 76 1011.2
20260904085849 70 201 11.0 16.0 0.00 0.00 0.00 77 1011.3
20260904085338 69 190 12.0 15.0 0.00 0.00 0.00 76 1011.3
20260904084840 69 228 9.0 17.0 0.00 0.00 0.00 75 1011.4
20260904084340 69 214 12.0 18.0 0.00 0.00 0.00 74 1011.5
20260904084126 70 228 11.0 19.0 0.00 0.00 0.00 74 1011.7
20260904083341 70 211 11.0 19.0 0.00 0.00 0.00 74 1011.8
20260904082843 70 197 14.0 19.0 0.00 0.00 0.00 74 1011.7
20260904082351 70 265 9.0 15.0 0.00 0.00 0.00 74 1011.9
20260904081842 70 228 11.0 15.0 0.00 0.00 0.00 74 1011.8
20260904081341 70 235 8.0 15.0 0.00 0.00 0.00 75 1011.8
20260904080841 70 266 6.0 15.0 0.00 0.00 0.00 75 1011.8
20260904080339 70 186 11.0 18.0 0.00 0.00 0.00 75 1011.7
20260904075843 69 232 13.0 18.0 0.00 0.00 0.00 76 1011.8
20260904075337 69 265 12.0 18.0 0.00 0.00 0.00 76 1012.0
20260904074839 69 215 9.0 13.0 0.00 0.00 0.00 76 1012.0
20260904074338 69 237 7.0 12.0 0.00 0.00 0.00 77 1011.9
20260904073838 68 231 8.0 13.0 0.00 0.00 0.00 77 1012.0
20260904073337 68 222 9.0 13.0 0.00 0.00 0.00 77 1012.1
20260904072845 68 222 6.0 13.0 0.00 0.00 0.00 77 1012.4
20260904072337 68 214 5.0 12.0 0.00 0.00 0.00 78 1012.4
20260904071840 67 220 8.0 14.0 0.00 0.00 0.00 78 1012.3
20260904071620 67 208 8.0 14.0 0.00 0.00 0.00 78 1012.2
20260904070837 67 221 8.0 12.0 0.00 0.00 0.00 78 1012.2
20260904070334 67 235 8.0 11.0 0.00 0.00 0.00 78 1012.3
20260904065837 0 218 9.0 9.0 0.00 0.00 0.00 1012.3
20260904065823 0 0.0 0.0 0.00 0.00 0.00
20260904065106 67 214 9.0 16.0 0.00 0.00 0.00 78 1012.5
20260904064606 67 214 9.0 16.0 0.00 0.00 0.00 78 1012.5
20260904064105 67 229 7.0 15.0 0.00 0.00 0.00 78 1012.5
20260904063605 67 245 10.0 16.0 0.00 0.00 0.00 78 1012.5
20260904063106 67 248 9.0 16.0 0.00 0.00 0.00 78 1012.6
20260904062605 67 241 8.0 16.0 0.00 0.00 0.00 78 1012.7
20260904062105 67 225 9.0 16.0 0.00 0.00 0.00 78 1012.8
20260904061606 66 238 8.0 12.0 0.00 0.00 0.00 78 1012.8
20260904061105 67 224 10.0 12.0 0.00 0.00 0.00 78 1013.0
20260904060605 66 248 8.0 12.0 0.00 0.00 0.00 80 1013.1
20260904060356 65 265 6.0 14.0 0.00 0.00 0.00 81 1013.2
20260904055846 65 224 7.0 14.0 0.00 0.00 0.00 81 1013.1
20260904055344 65 215 4.0 10.0 0.00 0.00 0.00 81 1013.1
20260904054848 65 238 5.0 10.0 0.00 0.00 0.00 81 1013.0
20260904054348 64 235 9.0 10.0 0.00 0.00 0.00 81 1013.0
20260904053604 64 220 6.0 10.0 0.00 0.00 0.00 82 1013.0
20260904053106 64 201 6.0 11.0 0.00 0.00 0.00 82 1013.0
20260904052605 64 207 7.0 11.0 0.00 0.00 0.00 82 1013.1
20260904052345 64 231 5.0 7.0 0.00 0.00 0.00 82 1013.2
20260904051605 64 234 5.0 7.0 0.00 0.00 0.00 82 1013.2
20260904051104 64 218 5.0 7.0 0.00 0.00 0.00 82 1013.3
20260904050604 64 217 5.0 10.0 0.00 0.00 0.00 82 1013.4
20260904050111 64 248 5.0 10.0 0.00 0.00 0.00 82 1013.5
20260904045847 64 228 6.0 9.0 0.00 0.00 0.00 82 1013.4
20260904045345 64 234 6.0 9.0 0.00 0.00 0.00 82 1013.5
20260904044607 64 252 4.0 7.0 0.00 0.00 0.00 82 1013.5
20260904044105 64 241 6.0 10.0 0.00 0.00 0.00 82 1013.6
20260904043604 64 251 6.0 10.0 0.00 0.00 0.00 82 1013.6
20260904043105 64 260 4.0 6.0 0.00 0.00 0.00 82 1013.5
20260904042604 64 244 4.0 6.0 0.00 0.00 0.00 82 1013.6
20260904042103 64 234 3.0 6.0 0.00 0.00 0.00 82 1013.5
20260904041606 64 235 3.0 7.0 0.00 0.00 0.00 81 1013.5
20260904041104 64 222 6.0 7.0 0.00 0.00 0.00 81 1013.4
20260904040603 64 224 4.0 7.0 0.00 0.00 0.00 81 1013.4
20260904040108 64 246 3.0 5.0 0.00 0.00 0.00 81 1013.6
20260904035555 64 241 4.0 7.0 0.00 0.00 0.00 81 1013.6
20260904035054 64 234 5.0 7.0 0.00 0.00 0.00 81 1013.8
20260904034555 64 245 5.0 9.0 0.00 0.00 0.00 81 1013.8
20260904034053 64 231 5.0 9.0 0.00 0.00 0.00 82 1013.8
20260904033553 64 242 4.0 7.0 0.00 0.00 0.00 82 1013.8
20260904033054 64 204 4.0 9.0 0.00 0.00 0.00 82 1014.0
20260904032553 64 241 6.0 9.0 0.00 0.00 0.00 82 1013.8
20260904032052 63 237 4.0 9.0 0.00 0.00 0.00 81 1013.9
20260904031554 63 242 5.0 7.0 0.00 0.00 0.00 81 1013.7
20260904031052 63 235 4.0 7.0 0.00 0.00 0.00 81 1013.7
20260904030552 63 239 5.0 9.0 0.00 0.00 0.00 81 1013.6
20260904030053 63 256 7.0 9.0 0.00 0.00 0.00 81 1013.7
20260904025552 63 256 4.0 7.0 0.00 0.00 0.00 81 1013.9
20260904025051 63 239 4.0 9.0 0.00 0.00 0.00 81 1014.1
20260904024554 63 234 6.0 11.0 0.00 0.00 0.00 81 1014.2
20260904024327 63 217 8.0 11.0 0.00 0.00 0.00 81 1014.2
20260904023552 63 263 6.0 13.0 0.00 0.00 0.00 81 1014.1
20260904023342 63 265 5.0 13.0 0.00 0.00 0.00 82 1014.1
20260904022551 63 265 6.0 11.0 0.00 0.00 0.00 82 1014.1
20260904022052 63 244 5.0 13.0 0.00 0.00 0.00 81 1014.0
20260904021837 63 256 8.0 13.0 0.00 0.00 0.00 81 1014.0
20260904021139 63 210 7.0 13.0 0.00 0.00 0.00 82 1014.0
20260904021125 63 255 7.0 13.0 0.00 0.00 0.00 82 1014.1
20260904020606 63 221 8.0 12.0 0.00 0.00 0.00 82 1014.0
20260904015533 63 215 9.0 13.0 0.00 0.00 0.00 82 1014.1
20260904015031 63 241 7.0 11.0 0.00 0.00 0.00 82 1014.1
20260904014813 63 224 7.0 11.0 0.00 0.00 0.00 81 1013.9
20260904014317 63 235 6.0 11.0 0.00 0.00 0.00 81 1014.0
20260904013533 63 234 7.0 14.0 0.00 0.00 0.00 81 1014.0
20260904013031 63 242 6.0 14.0 0.00 0.00 0.00 81 1014.0
20260904012533 63 228 7.0 10.0 0.00 0.00 0.00 81 1013.9
20260904012032 63 237 5.0 9.0 0.00 0.00 0.00 81 1014.1
20260904011534 63 214 6.0 9.0 0.00 0.00 0.00 81 1014.1
20260904011033 63 249 5.0 11.0 0.00 0.00 0.00 81 1014.2
20260904010532 63 241 7.0 11.0 0.00 0.00 0.00 81 1014.3
20260904010317 63 228 8.0 9.0 0.00 0.00 0.00 81 1014.3
20260904005535 63 249 4.0 9.0 0.00 0.00 0.00 80 1014.4
20260904005034 63 245 2.0 9.0 0.00 0.00 0.00 80 1014.3
20260904004535 63 248 5.0 9.0 0.00 0.00 0.00 80 1014.4
20260904004107 63 251 6.0 9.0 0.00 0.00 0.00 80 1014.4
20260904004052 63 258 4.0 9.0 0.00 0.00 0.00 80 1014.4
20260904003034 63 218 4.0 7.0 0.00 0.00 0.00 79 1014.3
20260904002536 63 262 4.0 7.0 0.00 0.00 0.00 79 1014.4
20260904002034 63 251 5.0 6.0 0.00 0.00 0.00 79 1014.4
20260904001523 63 222 4.0 11.0 0.00 0.00 0.00 79 1014.5
20260904001008 64 256 8.0 11.0 0.00 0.00 0.00 79 1014.4
20260904000520 64 245 6.0 10.0 0.00 0.00 0.00 79 1014.5
20260904000005 64 266 5.0 10.0 0.00 0.00 0.00 79 1014.4
20260903235507 64 256 5.0 9.0 0.00 0.00 0.00 79 1014.4
20260903235005 64 248 5.0 11.0 0.00 0.00 0.00 78 1014.6
20260903234505 64 256 4.0 11.0 0.00 0.00 0.00 78 1014.6
20260903234002 64 280 6.0 12.0 0.00 0.00 0.00 78 1014.6
20260903233504 64 252 5.0 12.0 0.00 0.00 0.00 78 1014.7
20260903233004 64 275 7.0 12.0 0.00 0.00 0.00 78 1014.7
20260903232505 64 242 6.0 12.0 0.00 0.00 0.00 78 1014.7
20260903232004 64 269 5.0 14.0 0.00 0.00 0.00 78 1014.8
20260903231752 64 258 7.0 14.0 0.00 0.00 0.00 78 1014.8
20260903230958 64 241 5.0 11.0 0.00 0.00 0.00 78 1014.9
20260903230509 64 249 5.0 13.0 0.00 0.00 0.00 78 1014.8
20260903225954 64 273 6.0 15.0 0.00 0.00 0.00 78 1014.7
20260903225451 64 259 8.0 15.0 0.00 0.00 0.00 78 1014.6
20260903224948 64 251 5.0 12.0 0.00 0.00 0.00 78 1014.6
20260903224451 64 251 8.0 12.0 0.00 0.00 0.00 78 1014.7
20260903223946 64 220 7.0 12.0 0.00 0.00 0.00 78 1014.6
20260903223451 64 256 4.0 12.0 0.00 0.00 0.00 78 1014.7
20260903222948 64 251 9.0 12.0 0.00 0.00 0.00 78 1014.6
20260903222454 64 248 5.0 10.0 0.00 0.00 0.00 78 1014.7
20260903221949 64 265 7.0 14.0 0.00 0.00 0.00 78 1014.7
20260903221444 0 268 9.0 5.0 0.00 0.00 0.00 1014.7
20260903221105 0 244 6.0 5.0 0.00 0.00 0.00 1014.7
20260903220606 64 244 6.0 10.0 0.00 0.00 0.00 79 1014.7
20260903220106 64 234 6.0 13.0 0.00 0.00 0.00 79 1014.7
20260903215606 64 203 8.0 13.0 0.00 0.00 0.00 79 1014.8
20260903215344 64 239 7.0 14.0 0.00 0.00 0.00 79 1014.8
20260903214604 64 265 8.0 14.0 0.00 0.00 0.00 78 1014.9
20260903214104 64 251 6.0 15.0 0.00 0.00 0.00 78 1014.9
20260903213603 64 269 6.0 15.0 0.00 0.00 0.00 78 1014.8
20260903213344 64 239 6.0 9.0 0.00 0.00 0.00 78 1014.9
20260903212657 64 238 9.0 13.0 0.00 0.00 0.00 78 1014.9
20260903212653 64 231 10.0 13.0 0.00 0.00 0.00 78 1014.9
20260903212634 64 244 3.0 11.0 0.00 0.00 0.00 78 1014.9
20260903211101 64 231 6.0 13.0 0.00 0.00 0.00 78 1014.8
20260903210602 64 266 5.0 14.0 0.00 0.00 0.00 78 1014.8
20260903205602 64 238 9.0 14.0 0.00 0.00 0.00 78 1014.8
20260903205102 64 260 6.0 12.0 0.00 0.00 0.00 78 1014.9
20260903204602 64 251 7.0 12.0 0.00 0.00 0.00 78 1015.0
20260903204147 64 217 6.0 11.0 0.00 0.00 0.00 78 1015.0
20260903204141 64 228 6.0 14.0 0.00 0.00 0.00 78 1015.0
20260903204127 64 237 5.0 10.0 0.00 0.00 0.00 78 1015.0
20260903202602 64 263 10.0 14.0 0.00 0.00 0.00 78 1015.0
20260903202101 64 273 8.0 14.0 0.00 0.00 0.00 78 1014.9
20260903201601 64 262 8.0 14.0 0.00 0.00 0.00 78 1014.9
20260903201101 64 251 8.0 12.0 0.00 0.00 0.00 78 1015.0
20260903200601 64 263 5.0 12.0 0.00 0.00 0.00 77 1014.8
20260903195601 65 228 8.0 15.0 0.00 0.00 0.00 77 1015.0
20260903195335 65 229 7.0 13.0 0.00 0.00 0.00 77 1015.0
20260903194559 65 259 6.0 14.0 0.00 0.00 0.00 77 1014.9
20260903194102 65 249 8.0 15.0 0.00 0.00 0.00 77 1014.9
20260903193601 65 249 11.0 18.0 0.00 0.00 0.00 77 1015.0
20260903193337 65 229 11.0 18.0 0.00 0.00 0.00 77 1015.0
20260903192600 65 262 12.0 19.0 0.00 0.00 0.00 77 1015.0
20260903192100 65 211 8.0 19.0 0.00 0.00 0.00 77 1015.0
20260903191601 66 213 12.0 18.0 0.00 0.00 0.00 77 1015.0
20260903191100 66 221 10.0 18.0 0.00 0.00 0.00 76 1014.9
20260903190559 66 251 8.0 18.0 0.00 0.00 0.00 76 1014.9
20260903190100 66 246 11.0 18.0 0.00 0.00 0.00 76 1014.9
20260903185559 66 253 9.0 16.0 0.00 0.00 0.00 76 1015.0
20260903185100 66 228 9.0 16.0 0.00 0.00 0.00 76 1015.0
20260903184602 67 252 9.0 11.0 0.00 0.00 0.00 76 1014.8
20260903184102 67 249 6.0 13.0 0.00 0.00 0.00 76 1014.9
20260903183602 67 273 6.0 20.0 0.00 0.00 0.00 76 1014.9
20260903183102 67 220 11.0 21.0 0.00 0.00 0.00 76 1014.9
20260903182602 67 262 12.0 21.0 0.00 0.00 0.00 76 1014.9
20260903182100 67 204 14.0 24.0 0.00 0.00 0.00 75 1014.8